Weather observations for the past three days for
Clarks Point Airport
Metric (Imperial)
Date Time (akdt) Wind (kph) Vis. (km) Weather Sky Cond. Temperature (ºC) Relative Humidity Wind Chill (°C) Heat Index (°C) Pressure Precipitation (cm)
Air Dwpt 6 hour altimeter (cm) sea level (mb) 1 hr 3 hr 6 hr
Max. Min.
21 08:56 N 17 16.09 Overcast FEW070 OVC090 10.6 7.8 83% 76.1 1013.8
21 07:56 N 13 16.09 Overcast FEW050 OVC080 9.4 8.3 93% 8 76.1 1013.8
21 06:56 NE 7 16.09 Overcast OVC090 8.3 8.3 100% 7 76.07 1013.6
21 05:56 NE 11 16.09 Overcast OVC090 8.3 8.3 100% 7 76.05 1013.3
21 04:56 N 15 16.09 Overcast OVC100 8.9 8.9 100% 7 76.02 1013.0
21 03:56 NE 13 16.09 Overcast OVC100 8.9 8.3 13.3 8.9 96% 7 76.02 1012.9
21 02:56 NE 13 16.09 Overcast FEW055 OVC100 8.9 8.9 100% 7 76.02 1012.9
21 01:56 NE 11 16.09 Overcast BKN048 OVC065 9.4 8.9 97% 8 76.02 1012.7
21 00:56 NE 9 14.48 Overcast OVC046 10 10 100% 9 76 1012.6
20 23:56 E 7 16.09 Overcast BKN048 OVC060 10.6 10.6 100% 75.97 1012.3
20 22:56 SE 6 16.09 Overcast OVC048 11.7 11.1 96% 75.95 1012.0
20 21:56 NE 13 16.09 Overcast SCT100 OVC110 13.3 7.2 15 13.3 67% 75.95 1011.7
20 20:56 NE 15 16.09 Mostly Cloudy FEW070 BKN100 13.9 6.1 60% 75.92 1011.7
20 19:56 NE 19 16.09 Mostly Cloudy FEW036 BKN100 14.4 6.7 60% 75.92 1011.6
20 18:56 NE 17 16.09 Overcast FEW032 OVC090 14.4 6.7 60% 75.95 1011.8
20 17:56 E 17 16.09 Overcast FEW029 BKN090 OVC110 14.4 8.3 67% 75.95 1011.8
20 16:56 NE 19 16.09 Overcast FEW027 BKN039 OVC047 14.4 6.7 60% 75.97 1012.1
20 15:56 NE 17 16.09 Overcast SCT050 BKN060 OVC095 13.3 8.9 15 10 75% 76 1012.6
20 14:56 NE 26 16.09 Light Rain SCT028 BKN048 OVC075 13.3 9.4 77% 76.02 1012.7
20 13:56 E 15 16.09 Overcast BKN028 OVC034 15 8.3 64% 76.02 1012.8
20 12:56 NE 17 16.09 Overcast SCT019 BKN024 OVC055 13.3 7.8 70% 76.05 1013.2
20 11:56 NE 17 16.09 Overcast BKN015 OVC080 11.7 8.3 80% 76.07 1013.7
20 10:56 NE 19 16.09 Overcast BKN011 OVC023 10 10 100% 8 76.12 1014.2
20 09:56 NE 7 16.09 Light Rain BKN015 OVC020 10 10 10 8.3 100% 9 76.15 1014.5 0.03
20 08:56 NE 7 16.09 Overcast OVC020 9.4 9.4 100% 9 76.15 1014.7
20 07:56 NE 7 16.09 Overcast OVC024 9 0 0% 8 76.17 1015.0
20 06:56 NE 7 16.09 Overcast BKN030 BKN046 OVC055 8 0 0% 7 76.2 1015.3 0.03 0.03
20 05:56 NE 9 16.09 Light Rain OVC042 8 0 0% 7 76.2 1015.4
20 04:56 NE 13 16.09 Light Rain OVC036 8 0 0% 6 76.23 1015.4
20 03:56 NE 6 16.09 Overcast OVC033 8 0 11.1 8.3 0% 76.23 1015.6
20 02:56 E 11 16.09 Overcast BKN037 OVC046 8 0 0% 6 76.23 1015.7
20 01:56 E 7 16.09 Overcast OVC039 8.9 8.9 100% 8 76.25 1015.8
20 00:56 SE 9 16.09 Overcast OVC049 9.4 8.9 97% 8 76.25 1015.8
19 23:56 E 9 16.09 Overcast BKN047 OVC055 10 8.3 89% 9 76.25 1015.8
19 22:56 SE 9 16.09 Overcast BKN049 OVC095 10 7.8 86% 9 76.23 1015.7
19 21:56 E 11 16.09 Overcast FEW025 SCT032 OVC047 11.1 8.3 13.3 11.1 83% 76.2 1015.3
19 20:56 S 15 16.09 Overcast FEW026 BKN032 OVC039 12.2 6.7 69% 76.17 1015.0
19 19:56 SE 11 16.09 Overcast SCT028 OVC080 12.2 6.7 69% 76.2 1015.1
19 18:56 SE 22 16.09 Overcast BKN024 OVC043 12.2 7.2 72% 76.2 1015.2
19 17:56 SE 19 16.09 Overcast SCT021 BKN026 OVC050 12.2 7.8 75% 76.23 1015.5
19 16:56 SE 24 16.09 Light Rain FEW017 SCT028 OVC036 11.7 8.3 80% 76.23 1015.5
19 15:56 SE 26 16.09 Overcast BKN019 BKN030 OVC037 11.1 8.3 11.1 9.4 83% 76.23 1015.5
19 14:56 SE 26 16.09 Light Rain BKN019 OVC027 11.1 8.3 83% 76.23 1015.7
19 13:56 SE 30 16.09 Light Rain OVC017 10.6 8.3 86% 76.23 1015.7
19 12:56 SE 30 16.09 Light Rain BKN017 OVC037 10.6 8.3 86% 76.2 1015.3
19 11:56 SE 26 16.09 Overcast OVC017 10.6 8.3 86% 76.2 1015.2
19 10:56 SE 33 G 39 16.09 Overcast and Breezy BKN013 OVC018 10 8.9 93% 7 76.17 1014.9
19 09:56 SE 20 G 37 16.09 Light Rain FEW013 OVC032 8.9 8.9 8.9 7.8 100% 6 76.15 1014.7 0.03 0.08
19 08:56 SE 26 G 35 16.09 Light Rain OVC028 8.9 8.9 100% 6 76.15 1014.5
19 07:56 SE 20 16.09 Overcast OVC030 8.9 8.3 96% 6 76.12 1014.2
19 06:56 SE 24 16.09 Overcast BKN043 OVC060 8.3 8.3 100% 5 76.1 1013.9 0.05
19 05:56 SE 19 16.09 Overcast BKN049 OVC060 7.8 7.8 100% 5 76.1 1013.8
19 04:56 SE 20 16.09 Light Rain OVC055 7.8 7.8 100% 5 76.1 1013.7 0.05
19 03:56 SE 22 16.09 Light Rain OVC060 7.8 7.8 10 7.8 100% 5 76.1 1013.8
19 02:56 SE 22 16.09 Light Rain BKN060 OVC085 8.3 8.3 100% 5 76.1 1013.8
19 01:56 SE 24 16.09 Overcast OVC065 8.9 7.8 93% 6 76.07 1013.6
19 00:56 SE 26 16.09 Overcast OVC065 8.9 8.3 96% 6 76.07 1013.6
18 23:56 SE 28 16.09 Overcast OVC060 9.4 8.9 97% 6 76.05 1013.2
18 22:56 SE 30 G 39 16.09 Overcast OVC060 9.4 8.9 97% 6 76.02 1012.8
18 21:56 SE 31 16.09 Overcast FEW015 OVC060 10 8.3 11.7 10 89% 7 76 1012.6
18 20:56 SE 39 G 48 16.09 Overcast and Breezy FEW025 OVC060 10 8.3 89% 6 75.97 1012.3
18 19:56 SE 33 G 48 16.09 Overcast and Breezy BKN016 BKN027 OVC060 10.6 8.9 89% 76 1012.5
18 18:56 SE 43 G 50 16.09 Overcast and Windy BKN046 BKN060 OVC070 10.6 8.3 86% 76 1012.5
18 17:56 SE 41 G 50 16.09 Overcast and Breezy SCT024 SCT034 OVC046 11.1 6.7 75% 76.02 1012.8
18 16:56 E 20 16.09 Light Rain FEW019 BKN024 OVC033 10 9.4 96% 8 76.05 1013.3
18 14:56 SE 28 G 35 16.09 Overcast OVC032 11.7 5 64% 76.05 1013.3
18 13:56 SE 31 G 46 16.09 Overcast BKN026 BKN032 OVC043 11.1 5.6 69% 76.07 1013.6
18 12:56 SE 33 G 44 16.09 Light Rain and Breezy FEW024 BKN045 OVC055 10.6 6.1 74% 76.1 1013.9
18 11:56 SE 39 G 50 16.09 Overcast and Breezy FEW020 OVC050 11.7 6.1 69% 76.1 1013.8
18 10:56 SE 26 G 35 16.09 Overcast BKN024 BKN028 OVC065 11.7 6.1 69% 76.1 1014.0
18 09:56 SE 22 16.09 Overcast FEW050 BKN075 OVC090 10.6 6.1 11.1 6.7 74% 76.12 1014.1
Date Time (akdt) Wind (kph) Vis. (km) Weather Sky Cond. Air Dwpt Max. Min. Relative Humidity Wind Chill (°C) Heat Index (°C) altimeter (cm) sea level (mb) 1 hr 3 hr 6 hr
6 hour
Temperature (ºC) Pressure Precipitation (cm)